Location: Frankrijk
(52.3490°N, 5.6467°E)
Time: 15:44:53
(UTC+00:00)

Daily predictions for brighter satellites

Satellite Brightness Start Highest point End
(mag) Time Altitude Azimuth Time Altitude Azimuth Time Altitude Azimuth
Okean 1 Rocket 3.3 19:50:08 10° S 19:54:22 50° E 19:58:39 10° NNE
Meteor 2-3 Rocket 3.8 19:50:28 10° NNW 19:56:07 86° ENE 20:01:46 10° SSE
Cosmos 2084 3.4 19:53:48 10° SW 19:57:57 89° SE 20:02:07 10° NE
SPOT 3 Rocket 4.3 19:54:40 10° SE 19:59:21 37° ENE 20:04:03 10° N
CZ-4 R/B 2.6 19:56:58 10° SSW 20:00:21 37° W 20:03:46 10° NNW
Cosmos 1850 Rocket 4.0 19:55:23 10° NNW 20:00:34 73° ENE 20:05:43 10° SSE
CZ-4B R/B 3.8 19:58:53 10° ESE 20:01:39 25° ENE 20:04:30 10° N
Cosmos 1782 4.0 19:59:39 10° SE 20:02:19 20° E 20:05:00 10° NE
ASTEX 1 4.1 20:01:52 10° S 20:06:44 57° W 20:11:39 10° NNW
Cosmos 2084 Rocket 4.2 20:06:05 10° NW 20:10:06 44° NNE 20:14:10 10° ESE
Cosmos 2056 Rocket 3.9 20:04:53 10° SSW 20:10:17 75° WNW 20:15:41 10° NNE
CZ-4B R/B 3.6 20:04:41 10° S 20:10:19 68° WSW 20:15:58 10° NNW
Cosmos 1833 Rocket 2.7 20:05:40 10° SSW 20:11:16 86° ESE 20:16:56 10° NNE
Cosmos 1110 Rocket 4.2 20:06:33 10° S 20:11:42 55° ESE 20:16:53 10° NNE
Cosmos 1802 Rocket 4.2 20:06:10 10° SSE 20:12:10 55° E 20:18:09 10° NNE
Cosmos 1624 Rocket 4.3 20:08:03 10° SSW 20:13:13 73° WNW 20:18:26 10° NNE
Terra 2.5 20:09:56 10° S 20:14:31 55° W 20:19:10 10° NNW
Gbstr 26 Del rocket 3.4 20:09:32 10° W 20:14:45 61° SSW 20:18:53 11° ESE
Cosmos 2360 Rocket 4.1 20:11:45 10° NNW 20:15:57 21° NNE 20:20:09 10° E
Sich 1 Rocket 3.5 20:12:51 10° S 20:17:11 73° E 20:21:33 10° NNE
SJ 16-02 4.1 20:17:23 10° WNW 20:19:16 13° W 20:21:09 10° WSW
YAOGAN 11 4.3 20:16:20 10° NNE 20:20:38 52° E 20:24:59 10° S
CZ-2C R/B 3.6 20:23:39 13° ESE 20:25:27 22° ENE 20:27:41 10° NNE
Cosmos 1743 2.0 20:22:51 10° N 20:25:52 70° ENE 20:28:34 12° SSE
Meteor 1-27 4.3 20:26:07 10° S 20:31:40 58° E 20:37:10 10° NNE
Cosmos 44 Rocket 3.7 20:27:01 10° SSW 20:31:51 47° ESE 20:36:49 10° NE
ISS -2.4 20:30:11 10° SSW 20:32:38 19° SE 20:35:05 10° E
Cosmos 1459 Rocket 4.1 20:26:55 10° S 20:33:11 86° W 20:39:23 10° N
Cosmos 2219 Rocket 4.3 20:29:27 10° NNW 20:33:26 19° NNE 20:37:25 10° ENE
Meteor 2-12 Rocket 4.5 20:28:55 10° N 20:35:00 71° ENE 20:40:49 11° SSE
Ariane Rocket 3.3 20:32:21 13° SE 20:36:44 56° ENE 20:41:42 10° N
Cosmos 2100 Rocket 4.2 20:30:33 10° SSW 20:36:46 76° WNW 20:43:07 10° N
ATLAS 2AS CENTAUR R/B 3.1 20:33:41 10° WSW 20:40:35 68° NW 20:47:24 10° NE
Cosmos 2369 3.8 20:35:56 10° NNW 20:41:41 70° ENE 20:46:24 15° SE
SL-4 R/B 3.8 20:39:40 10° W 20:42:17 18° SW 20:44:44 11° S
BREEZE-M DEB (TANK) 4.3 20:39:30 10° W 20:42:24 30° SSW 20:47:10 14° SE
Spot 2 Rocket 4.0 20:37:50 10° S 20:42:46 58° W 20:47:45 10° NNW
Cosmos 2322 Rocket 3.7 20:39:03 10° NNW 20:43:53 28° NE 20:48:41 10° E
Cosmos 2082 Rocket 2.7 20:42:08 10° S 20:47:26 40° ESE 20:52:44 10° NE
Okean 2 Rocket 4.1 20:43:12 10° SSW 20:47:33 48° WNW 20:51:55 10° N
USA 305 2.5 20:44:20 10° WNW 20:48:28 81° SSW 20:51:08 18° ESE
Cosmos 1437 Rocket 4.3 20:47:59 15° ESE 20:48:58 16° E 20:51:15 10° NE
Cosmos 2151 3.8 20:46:34 10° N 20:50:22 34° ENE 20:52:53 18° SE
Cosmos 1626 Rocket 3.8 20:52:55 10° N 20:57:12 55° ENE 21:00:04 20° SSE
Cosmos 2233 Rocket 4.0 20:52:05 10° S 20:58:17 74° E 21:04:27 10° NNE
Cosmos 1607 4.1 20:52:29 10° SSW 20:58:21 48° ESE 21:04:20 10° NE
Cosmos 2228 2.8 20:55:35 11° S 20:59:29 74° E 21:03:36 10° NNE
USA 186 3.3 20:58:34 10° SSW 21:00:49 24° W 21:03:08 10° NW
Timation 1 Rocket 4.5 20:55:45 10° SW 21:01:47 83° WNW 21:07:50 10° NNE
Okean O Rocket 2.8 20:58:07 10° SSW 21:02:07 37° W 21:06:08 10° NNW
Tsikada Rocket 4.0 20:57:09 10° NNW 21:03:22 83° W 21:08:51 13° S
Cosmos 1697 Rocket 4.5 21:01:29 10° NW 21:05:57 25° WSW 21:10:22 10° SSW
CZ-4C R/B 1.7 21:04:42 10° SW 21:09:01 85° SE 21:14:40 10° NE
Cosmos 1725 Rocket 4.3 21:03:10 10° SSW 21:09:26 70° WNW 21:15:41 10° N
Cosmos 1992 Rocket 4.4 21:05:58 17° SSE 21:09:37 41° ESE 21:14:30 10° NE
Cosmos 1452 Rocket 3.6 21:04:48 10° SSW 21:10:01 81° WNW 21:15:18 10° NNE
Meteor 1-20 Rocket 4.3 21:04:31 10° N 21:10:02 64° ENE 21:13:53 20° SSE
COSMOS 2406 4.0 21:07:29 19° SSE 21:10:38 31° ESE 21:15:37 10° NE
SL-16 R/B 2.6 21:05:19 10° NNW 21:10:55 55° NE 21:14:58 19° SE
Helios 1A 4.4 21:09:18 10° NE 21:12:11 19° E 21:13:02 18° ESE
ATLAS 3B R/B 4.0 21:07:48 10° NW 21:14:37 35° WSW 21:20:47 11° S
Okean-O 4.2 21:11:15 10° SSW 21:15:06 30° W 21:18:59 10° NNW
Cosmos 1805 4.1 21:14:08 10° N 21:16:58 27° ENE 21:18:02 22° ESE
CZ-4B R/B 3.7 21:19:07 17° S 21:22:41 59° WSW 21:27:26 10° NNW
Cosmos 2333 Rocket 2.5 21:18:11 10° NNW 21:23:50 60° NE 21:27:39 21° SE
Cosmos 1455 Rocket 4.2 21:21:45 10° SW 21:25:58 43° WNW 21:30:11 10° N
Cosmos 1302 Rocket 3.9 21:22:32 10° SSW 21:27:42 90° NW 21:32:56 10° NNE
Cosmos 2098 Rocket 4.1 21:25:32 24° SE 21:27:51 36° E 21:32:05 10° NNE
Meteor 1-25 Rocket 4.3 21:23:21 10° N 21:29:05 68° ENE 21:32:32 24° SSE
Cosmos 1980 Rocket 3.5 21:29:17 10° NW 21:34:17 32° WSW 21:38:33 13° SSW
CZ-4B R/B 4.1 21:33:11 15° SSW 21:35:21 28° W 21:38:20 10° NW
Cosmos 2061 Rocket 4.2 21:30:05 10° SSW 21:36:17 74° WNW 21:42:35 10° N
Cosmos 1782 4.0 21:33:30 10° SW 21:36:44 34° WNW 21:40:00 10° N
Cosmos 1544 Rocket 3.4 21:35:33 23° S 21:38:11 81° E 21:42:32 10° NNE
Cosmos 724 4.3 21:32:57 10° SW 21:39:00 86° NW 21:44:58 10° NE
NOSS 3-3 (A) 3.8 21:34:46 10° SSW 21:39:52 57° SE 21:46:00 10° NE
DNEPR-1 R/B 4.4 21:39:50 10° NW 21:45:03 68° NE 21:49:21 21° ESE
Cosmos 1933 3.1 21:44:19 34° S 21:45:51 73° E 21:49:40 10° NNE
Cosmos 2084 Rocket 4.1 21:44:53 10° WNW 21:48:50 40° SW 21:50:19 29° S
Okean 1 4.2 21:49:59 26° E 21:50:20 27° E 21:53:24 10° NNE
Cosmos 1758 Rocket 4.2 21:46:59 10° NNW 21:51:14 51° W 21:53:41 23° SSW
Helios 1B rocket 2.5 21:51:51 36° ESE 21:52:51 48° ENE 21:56:15 10° N
CZ-2C R/B 3.9 21:55:17 18° SW 21:56:11 21° W 21:58:25 10° NW
Cosmos 1464 Rocket 4.0 21:53:23 26° SSE 21:56:52 63° E 22:02:57 10° NNE
Cosmos 1513 Rocket 4.5 21:56:21 21° S 22:00:46 90° NW 22:06:59 10° N
Cosmos 2360 Rocket 2.4 21:55:22 10° NNW 22:01:03 66° NE 22:04:14 26° SE
Meteor 2-10 4.2 21:58:17 10° NNW 22:04:01 81° ENE 22:06:57 30° SSE
Cosmos 1825 Rocket 3.5 22:03:18 10° N 22:07:39 76° ENE 22:09:11 39° SSE
NOSS 3-3 (C) 3.7 22:02:52 12° SSW 22:07:44 71° SE 22:14:08 10° NE
Geosat 3.9 22:03:20 10° NNE 22:08:23 90° ESE 22:12:24 16° SSW
ALOS 2 3.7 22:06:32 24° ESE 22:08:23 35° ENE 22:12:23 10° N
ARIANE 5 R/B 3.4 22:07:11 28° ESE 22:08:59 42° ENE 22:13:12 10° N
ISS -3.3 22:05:42 10° WSW 22:08:15 44° SW 22:08:15 44° SW
Cosmos 1953 Rocket 4.0 22:05:02 10° N 22:09:18 48° ENE 22:10:47 34° SE
Cosmos 1072 Rocket 4.5 22:08:18 25° S 22:12:07 84° E 22:18:28 10° NNE
Cosmos 2058 Rocket 4.3 22:11:46 24° ESE 22:12:37 25° E 22:16:12 10° NNE
USA 305 3.8 22:10:09 10° W 22:13:10 25° SW 22:13:10 25° SW
BREEZE-M R/B 4.2 22:07:20 10° W 22:16:06 79° S 22:21:45 10° E
Cosmos 1602 Rocket 4.2 22:12:45 10° NNW 22:16:53 47° W 22:18:42 29° SSW
Cosmos 1092 Rocket 4.3 22:11:40 10° N 22:17:44 56° ENE 22:20:51 29° SE
Cosmos 2219 Rocket 2.6 22:12:59 10° NNW 22:18:35 59° NE 22:21:48 25° SE
CZ-2C R/B 4.3 22:14:57 10° NNE 22:19:08 39° E 22:20:05 34° SE
DEBRIS 4.2 22:15:19 10° W 22:19:25 72° S 22:34:59 10° E
NOSS 3-4 (A) 3.7 22:14:42 10° NW 22:21:16 86° SW 22:26:01 26° SE
NOSS 3-4 (C) 3.7 22:15:18 10° NW 22:21:54 87° SW 22:26:40 25° SE
Cosmos 1437 Rocket 3.4 22:21:47 27° SW 22:23:19 44° WNW 22:26:46 10° N
Cosmos 540 Rocket 4.3 22:23:21 29° SE 22:24:25 32° ESE 22:28:57 10° NE
Cosmos 1461 3.1 22:26:32 41° ESE 22:26:32 41° ESE 22:29:40 10° NE
Cosmos 2151 4.5 22:23:31 10° NNW 22:27:02 27° W 22:28:56 19° SW
Cosmos 2322 Rocket 2.1 22:22:51 10° NNW 22:28:33 81° WSW 22:31:03 35° SSE
Cosmos 2034 Rocket 4.0 22:27:37 31° S 22:30:53 74° E 22:37:14 10° NNE
Cosmos 2082 Rocket 3.2 22:25:57 10° WSW 22:31:28 47° NW 22:36:59 10° NNE
ATLAS 2AS CENTAUR R/B 4.4 22:26:23 10° WNW 22:32:36 35° NNW 22:38:45 10° NE
Cosmos 220 Rocket 3.7 22:32:36 47° SSW 22:33:41 81° ESE 22:37:47 10° NNE
Cosmos 1536 3.1 22:33:57 10° N 22:37:30 46° ENE 22:38:06 42° ESE
Cosmos 1707 3.3 22:38:21 30° ENE 22:38:21 30° ENE 22:40:20 10° NNE
USA 234 3.4 22:32:14 10° ENE 22:38:36 51° SE 22:42:48 22° SSW
ACS3 Solar Sail 3.9 22:39:08 10° ENE 22:40:59 11° ENE 22:42:50 10° E
COSMOS 2428 3.9 22:36:41 10° NNW 22:41:59 37° NE 22:46:33 13° ESE
Cosmos 2237 Rocket 4.2 22:40:34 10° NNW 22:45:06 24° NE 22:49:37 10° E
Okean 1-7 Rocket 4.4 22:41:25 10° NNW 22:45:35 41° W 22:47:08 30° SW
Helios 1A 3.5 22:43:19 10° N 22:47:08 48° WNW 22:48:44 29° SW
Cosmos 1763 Rocket 3.8 22:45:39 39° SSE 22:47:13 53° ESE 22:52:22 10° NNE
Cosmos 1503 Rocket 4.0 22:42:02 10° NNW 22:47:14 70° WSW 22:49:02 40° S
Cosmos 1777 Rocket 4.3 22:42:20 10° NNW 22:47:28 55° WSW 22:49:16 37° SSW
Cosmos 2278 4.3 22:42:04 10° NW 22:47:31 46° WSW 22:49:38 32° SSW
Cosmos-2242 3.0 22:47:28 50° SE 22:48:13 61° E 22:52:19 10° NNE
CZ-2C R/B 4.3 22:44:56 10° NNE 22:50:02 33° E 22:51:56 27° SE
Cosmos 990 Rocket 3.9 22:45:26 10° NNW 22:50:37 88° WSW 22:52:30 41° SSE
Cosmos 1606 Rocket 4.1 22:52:45 31° SW 22:54:30 52° WNW 22:58:46 10° N
ARGOS Delta rocket 4.2 22:49:36 10° NNE 22:54:30 56° E 22:56:07 39° SSE
COSMOS 2406 3.7 22:49:26 12° SW 22:54:38 59° NW 23:00:19 10° NNE
SL-16 R/B 3.2 22:49:45 10° NW 22:54:46 33° WSW 22:56:47 26° SW
USA 290 2.6 22:56:48 51° ENE 22:56:48 51° ENE 22:59:26 10° NNE
Cosmos 1354 Rocket 3.9 22:52:12 10° NNW 22:57:29 81° WSW 22:59:19 41° SSE
CZ-4C R/B 3.8 22:53:24 10° W 22:57:53 35° NNW 23:03:36 10° NE
Cosmos 1634 Rocket 4.0 22:57:50 36° S 23:00:30 71° E 23:06:40 10° NNE
Cosmos 1766 2.7 22:58:08 10° NNW 23:01:17 72° W 23:01:17 72° W
Cosmos 1470 3.0 23:00:52 10° N 23:04:04 43° ENE 23:04:12 42° E
Cosmos 2279 Rocket 4.3 23:01:48 33° SSE 23:04:24 55° E 23:10:30 10° NNE
SeaSat 1 3.0 23:03:53 25° ESE 23:06:35 55° NE 23:11:22 10° NNW
Cosmos 1726 Rocket 4.0 23:06:20 36° SW 23:07:36 49° WNW 23:11:33 10° N
Cosmos 2333 Rocket 3.4 23:02:55 10° NW 23:07:48 30° WSW 23:09:39 25° SW
Cosmos 1076 Rocket 4.5 23:06:39 10° NNW 23:10:34 36° W 23:11:38 31° WSW
Cosmos 2221 3.4 23:09:57 32° ESE 23:10:34 33° E 23:14:20 10° NNE
Meteor 2-2 Rocket 4.2 23:10:21 38° S 23:12:37 85° E 23:18:24 10° NNE
Cosmos 1842 3.4 23:13:51 45° ENE 23:13:51 45° ENE 23:16:35 10° NNE
BREEZE-M DEB (TANK) 3.5 23:10:05 10° W 23:17:39 57° S 23:22:33 10° ESE
CZ-2C R/B 2.9 23:16:22 32° SE 23:18:44 60° ENE 23:23:54 10° N
Cosmos 1833 4.1 23:17:41 38° SSW 23:19:55 75° ESE 23:25:34 10° NNE
NOSS 0 Rocket 4.5 23:17:15 10° NNW 23:23:21 55° NE 23:28:04 17° ESE
Spot 4 4.4 23:23:21 36° SW 23:24:38 45° W 23:29:14 10° NNW
KORONAS-FOTON 3.3 23:25:14 83° W 23:25:15 83° W 23:28:40 10° N
Helios 1B rocket 4.2 23:25:48 16° W 23:26:06 16° W 23:28:21 10° NW
SAR-Lupe-2 4.0 23:26:37 45° W 23:26:37 45° W 23:29:43 10° NNW
Cosmos 1975 2.6 23:24:13 10° N 23:27:54 67° ENE 23:28:17 61° ESE
Aureole 1 Rocket 3.7 23:24:23 10° NNW 23:29:36 73° WSW 23:32:03 38° S
Cosmos 2266 Rocket 4.1 23:25:33 10° N 23:31:35 63° ENE 23:34:28 31° SSE
Cosmos 2322 3.8 23:26:38 10° NNW 23:32:22 77° ENE 23:35:16 30° SE
Cosmos 1812 Rocket 4.1 23:34:01 39° SE 23:34:56 45° E 23:39:10 10° NNE
Cosmos 2297 Rocket 3.9 23:33:58 17° ESE 23:35:35 19° E 23:39:24 10° ENE
Cosmos 44 3.4 23:30:29 10° NW 23:35:56 83° SW 23:38:07 37° SE
Cosmos 1271 Rocket 2.3 23:38:07 75° E 23:38:07 75° E 23:41:31 10° NNE
Cosmos 372 Rocket 3.9 23:36:51 10° NNW 23:41:59 74° WSW 23:43:34 44° S
RESURS DK-1 2.6 23:39:03 10° NNW 23:43:00 62° NE 23:44:13 40° ESE
Cosmos 1937 Rocket 3.6 23:38:09 10° NNW 23:43:19 69° ENE 23:45:41 32° SE
Cosmos 2360 Rocket 3.4 23:39:56 10° NW 23:44:36 27° WSW 23:45:58 24° SW
ALOS 2 3.6 23:43:55 30° WSW 23:44:44 33° W 23:48:44 10° NNW
ARIANE 5 R/B 3.9 23:44:33 25° WSW 23:45:26 27° W 23:49:15 10° NW
ISS-0.423:50:53E23:50:53E23:41:23W
Meteor 1-11 Rocket 3.8 23:41:17 10° N 23:47:04 77° ENE 23:49:32 35° SSE
GP-B 3.0 23:43:49 10° N 23:48:13 82° E 23:49:14 52° S
Cosmos 2058 Rocket 3.9 23:48:53 31° WSW 23:50:17 41° WNW 23:54:25 10° N
Cosmos 468 Rocket 3.9 23:51:08 41° SSW 23:53:02 88° ESE 23:58:21 10° NNE
